When you browse on this site, cookies collect data to enhance your experience and personalize the content and advertising you see.
Visit our Privacy Policy to learn more. By continuing to use the site, you agree to this use of cookies and data.
  • In Czech Republic
  • List of Countries
  • For 7 days
  • Water Temperature
  • Satellite Maps
  • Weather Map
  • Weather Widgets
  • user-avatar
    Login

    Hourly Weather Stepanakert

    Today, 23 February, Saturday

    Time Temperature Precipitation Wind Pressure Humidity
    00:00 +5°C° 0 mm 1 mps 694 mmHg 55%
    01:00 +4°C° 0 mm 1 mps 694 mmHg 55%
    02:00 +4°C° 0 mm 1 mps 694 mmHg 56%
    03:00 +4°C° 0 mm 1 mps 694 mmHg 55%
    04:00 +4°C° 0 mm 1 mps 694 mmHg 55%
    05:00 +3°C° 0 mm 1 mps 694 mmHg 55%
    06:00 +3°C° 0 mm 1 mps 694 mmHg 55%
    07:00 +5°C° 0 mm 1 mps 694 mmHg 51%
    08:00 +6°C° 0 mm 1 mps 694 mmHg 48%
    09:00 +7°C° 0 mm 1 mps 695 mmHg 43%
    10:00 +8°C° 0 mm 1 mps 695 mmHg 42%
    11:00 +8°C° 0 mm 2 mps 695 mmHg 41%
    12:00 +9°C° 0 mm 2 mps 695 mmHg 41%
    13:00 +9°C° 0 mm 2 mps 695 mmHg 41%
    14:00 +9°C° 0 mm 2 mps 695 mmHg 42%
    15:00 +12°C° 0 mm 2 mps 694 mmHg 37%
    16:00 +10°C° 0 mm 2 mps 694 mmHg 43%
    17:00 +9°C° 0 mm 1 mps 694 mmHg 50%
    18:00 +8°C° 0 mm 1 mps 694 mmHg 56%
    19:00 +7°C° 0 mm 1 mps 695 mmHg 58%
    20:00 +7°C° 0 mm 1 mps 695 mmHg 59%
    21:00 +7°C° 0 mm 1 mps 695 mmHg 60%
    22:00 +6°C° 0 mm 1 mps 695 mmHg 59%
    23:00 +6°C° 0 mm 1 mps 695 mmHg 57%

    Tomorrow, 24 February, Sunday

    Time Temperature Precipitation Wind Pressure Humidity
    00:00 +6°C° 0 mm 1 mps 695 mmHg 56%
    01:00 +6°C° 0 mm 1 mps 695 mmHg 55%
    02:00 +5°C° 0 mm 1 mps 695 mmHg 55%
    03:00 +5°C° 0 mm 1 mps 695 mmHg 55%
    04:00 +5°C° 0 mm 1 mps 695 mmHg 54%
    05:00 +5°C° 0 mm 1 mps 695 mmHg 54%
    06:00 +4°C° 0 mm 1 mps 695 mmHg 53%
    07:00 +6°C° 0 mm 1 mps 696 mmHg 50%
    08:00 +7°C° 0 mm 1 mps 696 mmHg 47%
    09:00 +7°C° 0 mm 0 mps 696 mmHg 44%
    10:00 +9°C° 0 mm 1 mps 696 mmHg 44%
    11:00 +9°C° 0 mm 2 mps 696 mmHg 43%
    12:00 +9°C° 0 mm 2 mps 696 mmHg 43%
    13:00 +9°C° 0 mm 2 mps 696 mmHg 44%
    14:00 +10°C° 0 mm 2 mps 696 mmHg 44%
    15:00 +10°C° 0 mm 2 mps 695 mmHg 45%
    16:00 +9°C° 0 mm 2 mps 695 mmHg 49%
    17:00 +8°C° 0 mm 2 mps 696 mmHg 53%
    18:00 +8°C° 0 mm 1 mps 696 mmHg 57%
    19:00 +7°C° 0 mm 1 mps 696 mmHg 59%
    20:00 +7°C° 0 mm 1 mps 696 mmHg 61%
    21:00 +7°C° 0 mm 1 mps 696 mmHg 63%
    22:00 +5°C° 0 mm 0 mps 696 mmHg 62%
    23:00 +5°C° 0 mm 0 mps 696 mmHg 62%

    Day after tomorrow, 25 February, Monday

    Time Temperature Precipitation Wind Pressure Humidity
    00:00 +5°C° 0 mm 0 mps 697 mmHg 62%
    01:00 +6°C° 0 mm 1 mps 697 mmHg 64%
    02:00 +5°C° 0 mm 1 mps 697 mmHg 67%
    03:00 +5°C° 0 mm 1 mps 696 mmHg 70%
    04:00 +4°C° 0 mm 1 mps 696 mmHg 73%
    05:00 +4°C° 0 mm 1 mps 696 mmHg 76%
    06:00 +4°C° 0 mm 1 mps 696 mmHg 79%
    07:00 +5°C° 0 mm 1 mps 697 mmHg 76%
    08:00 +5°C° 0 mm 1 mps 697 mmHg 73%
    09:00 +6°C° 0 mm 1 mps 697 mmHg 70%
    10:00 +6°C° 0 mm 2 mps 697 mmHg 67%
    11:00 +7°C° 0 mm 2 mps 697 mmHg 65%
    12:00 +7°C° 0 mm 2 mps 696 mmHg 62%
    13:00 +7°C° 0 mm 2 mps 696 mmHg 63%
    14:00 +7°C° 0 mm 2 mps 695 mmHg 64%
    15:00 +7°C° 0 mm 2 mps 694 mmHg 65%
    16:00 +7°C° 0 mm 2 mps 694 mmHg 69%
    17:00 +6°C° 0 mm 2 mps 694 mmHg 74%
    18:00 +6°C° 0 mm 1 mps 694 mmHg 78%
    19:00 +6°C° 0 mm 1 mps 694 mmHg 79%
    20:00 +6°C° 0 mm 1 mps 694 mmHg 80%
    21:00 +5°C° 0 mm 1 mps 694 mmHg 81%
    22:00 +5°C° 0 mm 1 mps 694 mmHg 79%
    23:00 +5°C° 0 mm 1 mps 694 mmHg 78%

    26 February, Tuesday

    Time Temperature Precipitation Wind Pressure Humidity
    00:00 +4°C° 0 mm 1 mps 693 mmHg 76%
    01:00 +4°C° 0 mm 1 mps 693 mmHg 75%
    02:00 +3°C° 0 mm 1 mps 693 mmHg 74%
    03:00 +2°C° 0 mm 0 mps 692 mmHg 73%
    04:00 +3°C° 0 mm 1 mps 692 mmHg 72%
    05:00 +3°C° 0 mm 1 mps 692 mmHg 71%
    06:00 +3°C° 0 mm 1 mps 691 mmHg 71%
    07:00 +4°C° 0 mm 1 mps 691 mmHg 66%
    08:00 +5°C° 0 mm 1 mps 691 mmHg 62%
    09:00 +5°C° 0 mm 2 mps 691 mmHg 58%
    10:00 +6°C° 0 mm 2 mps 690 mmHg 53%
    11:00 +7°C° 0 mm 2 mps 689 mmHg 48%
    12:00 +8°C° 0 mm 2 mps 688 mmHg 43%
    13:00 +9°C° 0 mm 2 mps 687 mmHg 42%
    14:00 +9°C° 0 mm 2 mps 686 mmHg 41%
    15:00 +9°C° 0 mm 2 mps 685 mmHg 40%
    16:00 +8°C° 0 mm 2 mps 685 mmHg 47%
    17:00 +7°C° 0 mm 2 mps 684 mmHg 53%
    18:00 +5°C° 0 mm 2 mps 684 mmHg 59%
    19:00 +6°C° 0 mm 1 mps 684 mmHg 60%
    20:00 +6°C° 0 mm 1 mps 684 mmHg 62%
    21:00 +5°C° 0 mm 1 mps 683 mmHg 64%
    22:00 +5°C° 0.1 mm 1 mps 683 mmHg 65%
    23:00 +5°C° 0.1 mm 1 mps 683 mmHg 66%

    27 February, Wednesday

    Time Temperature Precipitation Wind Pressure Humidity
    00:00 +5°C° 0.1 mm 1 mps 682 mmHg 67%
    01:00 +4°C° 0.3 mm 1 mps 682 mmHg 70%
    02:00 +4°C° 0.3 mm 1 mps 682 mmHg 73%
    03:00 +3°C° 0.3 mm 1 mps 681 mmHg 76%
    04:00 +3°C° 0.2 mm 1 mps 681 mmHg 78%
    05:00 +3°C° 0.2 mm 1 mps 681 mmHg 80%
    06:00 +3°C° 0.2 mm 1 mps 681 mmHg 81%
    07:00 +3°C° 0.3 mm 1 mps 681 mmHg 80%
    08:00 +2°C° 0.3 mm 2 mps 681 mmHg 78%
    09:00 +2°C° 0.3 mm 2 mps 681 mmHg 77%
    10:00 +2°C° 0.2 mm 2 mps 681 mmHg 75%
    11:00 +3°C° 0.2 mm 2 mps 681 mmHg 74%
    12:00 +3°C° 0.2 mm 2 mps 681 mmHg 72%
    13:00 +3°C° 0.2 mm 2 mps 681 mmHg 72%
    14:00 +3°C° 0.2 mm 2 mps 681 mmHg 71%
    15:00 +3°C° 0.2 mm 2 mps 681 mmHg 70%
    16:00 +3°C° 0.2 mm 2 mps 681 mmHg 72%
    17:00 +2°C° 0.2 mm 2 mps 681 mmHg 75%
    18:00 +3°C° 0.2 mm 1 mps 681 mmHg 77%
    19:00 +3°C° 0.3 mm 1 mps 682 mmHg 78%
    20:00 +2°C° 0.3 mm 1 mps 682 mmHg 79%
    21:00 +1°C° 0.3 mm 0 mps 682 mmHg 80%
    22:00 +1°C° 0.3 mm 0 mps 682 mmHg 81%
    23:00 +1°C° 0.3 mm 0 mps 682 mmHg 81%

    28 February, Thursday

    Time Temperature Precipitation Wind Pressure Humidity
    00:00 +2°C° 0.3 mm 1 mps 682 mmHg 82%
    01:00 +2°C° 0.5 mm 1 mps 682 mmHg 84%
    02:00 +1°C° 0.5 mm 1 mps 682 mmHg 85%
    03:00 +1°C° 0.5 mm 1 mps 682 mmHg 87%
    04:00 +1°C° 0.8 mm 1 mps 682 mmHg 88%
    05:00 +1°C° 0.8 mm 1 mps 682 mmHg 89%
    06:00 +1°C° 0.8 mm 1 mps 682 mmHg 90%
    07:00 +1°C° 0.7 mm 1 mps 682 mmHg 88%
    08:00 +1°C° 0.7 mm 1 mps 683 mmHg 85%
    09:00 +2°C° 0.7 mm 1 mps 683 mmHg 83%
    10:00 +2°C° 0.5 mm 1 mps 683 mmHg 81%
    11:00 +2°C° 0.5 mm 2 mps 683 mmHg 79%
    12:00 +2°C° 0.5 mm 2 mps 682 mmHg 77%
    13:00 +2°C° 0.6 mm 2 mps 682 mmHg 78%
    14:00 +2°C° 0.6 mm 2 mps 682 mmHg 79%
    15:00 +1°C° 0.6 mm 2 mps 682 mmHg 80%
    16:00 +2°C° 0.5 mm 1 mps 682 mmHg 81%
    17:00 +2°C° 0.5 mm 1 mps 682 mmHg 82%
    18:00 +1°C° 0.5 mm 1 mps 683 mmHg 84%
    19:00 +1°C° 0.3 mm 1 mps 683 mmHg 83%
    20:00 +1°C° 0.3 mm 1 mps 684 mmHg 83%
    21:00 +1°C° 0.3 mm 1 mps 684 mmHg 83%
    22:00 +1°C° 0.3 mm 1 mps 684 mmHg 82%
    23:00 0°C° 0.3 mm 1 mps 685 mmHg 82%
    Show more